| time (UTC) | temp F | wind direction | speed MPH | gust MPH | rain 1hr in | rain 24hr in | rain mn in | humidity % | barometer mb |
| 20260509135333 | 45 | 71 | 4.0 | 0.0 | 0.00 | 0.00 | 0.00 | 65 | 1019.7 |
| 20260509134401 | 44 | 58 | 4.0 | 0.0 | 0.00 | 0.00 | 0.00 | 64 | 1019.6 |
| 20260509133325 | 44 | 75 | 4.0 | 0.0 | 0.00 | 0.00 | 0.00 | 62 | 1019.6 |
| 20260509132331 | 45 | 70 | 3.0 | 0.0 | 0.00 | 0.00 | 0.00 | 57 | 1019.2 |
| 20260509131335 | 48 | 5 | 1.0 | 0.0 | 0.00 | 0.00 | 0.00 | 55 | 1019.0 |
| 20260509130339 | 46 | 338 | 5.0 | 0.0 | 0.00 | 0.00 | 0.00 | 57 | 1018.8 |
| 20260509125348 | 45 | 274 | 6.0 | 0.0 | 0.00 | 0.00 | 0.00 | 56 | 1018.7 |
| 20260509124329 | 45 | 296 | 7.0 | 0.0 | 0.00 | 0.00 | 0.00 | 54 | 1018.6 |
| 20260509123334 | 45 | 294 | 6.0 | 0.0 | 0.00 | 0.00 | 0.00 | 54 | 1018.5 |
| 20260509122358 | 44 | 321 | 4.0 | 0.0 | 0.00 | 0.00 | 0.00 | 55 | 1018.4 |
| 20260509121341 | 43 | 315 | 5.0 | 0.0 | 0.00 | 0.00 | 0.00 | 55 | 1018.7 |
| 20260509120349 | 43 | 263 | 8.0 | 0.0 | 0.00 | 0.00 | 0.00 | 54 | 1017.8 |
| 20260509115321 | 45 | 255 | 7.0 | 0.0 | 0.00 | 0.00 | 0.00 | 50 | 1018.3 |
| 20260509114329 | 49 | 288 | 9.0 | 0.0 | 0.00 | 0.00 | 0.00 | 45 | 1018.4 |
| 20260509113352 | 52 | 317 | 13.0 | 0.0 | 0.00 | 0.00 | 0.00 | 43 | 1018.1 |
| 20260509112334 | 52 | 10 | 13.0 | 0.0 | 0.00 | 0.00 | 0.00 | 43 | 1018.0 |
| 20260509111342 | 51 | 304 | 12.0 | 0.0 | 0.00 | 0.00 | 0.00 | 44 | 1017.9 |
| 20260509110326 | 49 | 342 | 8.0 | 0.0 | 0.00 | 0.00 | 0.00 | 48 | 1018.1 |
| 20260509105331 | 47 | 343 | 7.0 | 0.0 | 0.00 | 0.00 | 0.00 | 52 | 1017.4 |
| 20260509104335 | 45 | 338 | 8.0 | 0.0 | 0.00 | 0.00 | 0.00 | 56 | 1017.7 |
| 20260509103344 | 45 | 289 | 9.0 | 0.0 | 0.00 | 0.00 | 0.00 | 58 | 1017.6 |
| 20260509102329 | 42 | 289 | 8.0 | 0.0 | 0.00 | 0.00 | 0.00 | 64 | 1017.9 |
| 20260509101333 | 41 | 276 | 5.0 | 0.0 | 0.00 | 0.00 | 0.00 | 64 | 1017.2 |
| 20260509100337 | 41 | 299 | 6.0 | 0.0 | 0.00 | 0.00 | 0.00 | 64 | 1017.1 |
| 20260509095325 | 41 | 280 | 6.0 | 0.0 | 0.00 | 0.00 | 0.00 | 63 | 1016.9 |
| 20260509094349 | 43 | 294 | 9.0 | 0.0 | 0.00 | 0.00 | 0.00 | 64 | 1016.7 |
| 20260509093351 | 44 | 264 | 10.0 | 0.0 | 0.00 | 0.00 | 0.00 | 64 | 1017.2 |
| 20260509092354 | 45 | 284 | 7.0 | 0.0 | 0.00 | 0.00 | 0.00 | 67 | 1017.0 |
| 20260509091357 | 43 | 271 | 7.0 | 0.0 | 0.00 | 0.00 | 0.00 | 69 | 1016.2 |
| 20260509090344 | 43 | 251 | 8.0 | 0.0 | 0.00 | 0.00 | 0.00 | 69 | 1016.1 |
| 20260509085328 | 44 | 255 | 5.0 | 0.0 | 0.00 | 0.00 | 0.00 | 68 | 1016.7 |
| 20260509084332 | 44 | 274 | 5.0 | 0.0 | 0.00 | 0.00 | 0.00 | 68 | 1016.4 |
| 20260509083356 | 45 | 269 | 5.0 | 0.0 | 0.00 | 0.00 | 0.00 | 68 | 1016.3 |
| 20260509082326 | 45 | 283 | 5.0 | 0.0 | 0.00 | 0.00 | 0.00 | 68 | 1016.1 |
| 20260509081334 | 45 | 276 | 6.0 | 0.0 | 0.00 | 0.00 | 0.00 | 68 | 1016.1 |
| 20260509080337 | 46 | 252 | 6.0 | 0.0 | 0.00 | 0.00 | 0.00 | 67 | 1015.8 |
| 20260509075340 | 47 | 235 | 7.0 | 0.0 | 0.00 | 0.00 | 0.00 | 68 | 1015.9 |
| 20260509074330 | 46 | 252 | 9.0 | 0.0 | 0.00 | 0.00 | 0.00 | 69 | 1015.8 |
| 20260509073335 | 45 | 242 | 5.0 | 0.0 | 0.00 | 0.00 | 0.00 | 66 | 1015.1 |
| 20260509072338 | 47 | 196 | 5.0 | 0.0 | 0.00 | 0.00 | 0.00 | 64 | 1015.6 |
| 20260509071340 | 49 | 196 | 4.0 | 0.0 | 0.00 | 0.00 | 0.00 | 62 | 1015.1 |
| 20260509070343 | 51 | 236 | 3.0 | 0.0 | 0.00 | 0.00 | 0.00 | 61 | 1015.5 |
| 20260509065331 | 52 | 244 | 3.0 | 0.0 | 0.00 | 0.00 | 0.00 | 59 | 1015.4 |
| 20260509064334 | 53 | 240 | 4.0 | 0.0 | 0.00 | 0.00 | 0.00 | 56 | 1015.3 |
| 20260509063338 | 55 | 356 | 5.0 | 0.0 | 0.00 | 0.00 | 0.00 | 55 | 1014.9 |
| 20260509062342 | 56 | 12 | 9.0 | 0.0 | 0.00 | 0.00 | 0.00 | 53 | 1014.5 |
| 20260509061331 | 57 | 2 | 11.0 | 0.0 | 0.00 | 0.00 | 0.00 | 52 | 1014.5 |
| 20260509060335 | 57 | 3 | 6.0 | 0.0 | 0.00 | 0.00 | 0.00 | 51 | 1014.5 |
| 20260509055339 | 57 | 354 | 5.0 | 0.0 | 0.00 | 0.00 | 0.00 | 50 | 1014.5 |
| 20260509054343 | 57 | 15 | 4.0 | 0.0 | 0.00 | 0.00 | 0.00 | 48 | 1014.2 |
| 20260509053351 | 57 | 349 | 6.0 | 0.0 | 0.00 | 0.00 | 0.00 | 48 | 1014.2 |
| 20260509052334 | 55 | 352 | 5.0 | 0.0 | 0.00 | 0.00 | 0.00 | 50 | 1014.5 |
| 20260509051338 | 55 | 313 | 5.0 | 0.0 | 0.00 | 0.00 | 0.00 | 49 | 1014.4 |
| 20260509050325 | 56 | 307 | 6.0 | 0.0 | 0.00 | 0.00 | 0.00 | 48 | 1014.3 |
| 20260509045331 | 58 | 284 | 6.0 | 0.0 | 0.00 | 0.00 | 0.00 | 46 | 1014.5 |
| 20260509044339 | 58 | 290 | 8.0 | 0.0 | 0.00 | 0.00 | 0.00 | 47 | 1014.4 |
| 20260509043327 | 59 | 281 | 6.0 | 0.0 | 0.00 | 0.00 | 0.00 | 47 | 1013.9 |
| 20260509042332 | 60 | 298 | 5.0 | 0.0 | 0.00 | 0.00 | 0.00 | 46 | 1013.8 |
| 20260509041356 | 61 | 290 | 5.0 | 0.0 | 0.00 | 0.00 | 0.00 | 45 | 1013.5 |
| 20260509040343 | 62 | 336 | 4.0 | 0.0 | 0.00 | 0.00 | 0.00 | 45 | 1014.4 |
| 20260509035327 | 63 | 306 | 4.0 | 0.0 | 0.00 | 0.00 | 0.00 | 41 | 1013.9 |
| 20260509034332 | 63 | 299 | 6.0 | 0.0 | 0.00 | 0.00 | 0.00 | 40 | 1013.8 |
| 20260509033356 | 62 | 153 | 6.0 | 0.0 | 0.00 | 0.00 | 0.00 | 45 | 1013.3 |
| 20260509032344 | 64 | 216 | 8.0 | 0.0 | 0.00 | 0.00 | 0.00 | 41 | 1013.7 |
| 20260509031327 | 63 | 161 | 10.0 | 0.0 | 0.00 | 0.00 | 0.00 | 42 | 1013.5 |
| 20260509030332 | 63 | 133 | 6.0 | 0.0 | 0.00 | 0.00 | 0.00 | 43 | 1014.5 |
| 20260509025335 | 63 | 130 | 6.0 | 0.0 | 0.00 | 0.00 | 0.00 | 44 | 1012.6 |
| 20260509024340 | 64 | 73 | 9.0 | 0.0 | 0.00 | 0.00 | 0.00 | 41 | 1013.2 |
| 20260509023348 | 65 | 70 | 8.0 | 0.0 | 0.00 | 0.00 | 0.00 | 40 | 1013.1 |
| 20260509022330 | 66 | 222 | 10.0 | 0.0 | 0.00 | 0.00 | 0.00 | 39 | 1012.3 |
| 20260509021335 | 66 | 192 | 11.0 | 0.0 | 0.00 | 0.00 | 0.00 | 37 | 1012.4 |
| 20260509020340 | 66 | 17 | 10.0 | 0.0 | 0.00 | 0.00 | 0.00 | 38 | 1013.2 |
| 20260509015328 | 66 | 11 | 9.0 | 0.0 | 0.00 | 0.00 | 0.00 | 36 | 1012.2 |
| 20260509014333 | 67 | 360 | 15.0 | 0.0 | 0.00 | 0.00 | 0.00 | 36 | 1012.2 |
| 20260509013340 | 67 | 336 | 11.0 | 0.0 | 0.00 | 0.00 | 0.00 | 34 | 1012.2 |
| 20260509012343 | 68 | 314 | 8.0 | 0.0 | 0.00 | 0.00 | 0.00 | 33 | 1012.0 |
| 20260509011330 | 68 | 219 | 14.0 | 0.0 | 0.00 | 0.00 | 0.00 | 32 | 1011.8 |
| 20260509010335 | 68 | 252 | 16.0 | 0.0 | 0.00 | 0.00 | 0.00 | 32 | 1012.5 |
| 20260509005338 | 68 | 264 | 15.0 | 0.0 | 0.00 | 0.00 | 0.00 | 32 | 1011.7 |
| 20260509004342 | 70 | 309 | 14.0 | 0.0 | 0.00 | 0.00 | 0.00 | 30 | 1011.3 |
| 20260509003327 | 71 | 244 | 8.0 | 0.0 | 0.00 | 0.00 | 0.00 | 28 | 1011.8 |
| 20260509002336 | 72 | 275 | 4.0 | 0.0 | 0.00 | 0.00 | 0.00 | 29 | 1011.6 |
| 20260509001343 | 73 | 350 | 3.0 | 0.0 | 0.00 | 0.00 | 0.00 | 28 | 1011.1 |
| 20260509000328 | 73 | 323 | 3.0 | 0.0 | 0.00 | 0.00 | 0.00 | 27 | 1011.2 |
| 20260508235353 | 73 | 334 | 6.0 | 0.0 | 0.00 | 0.00 | 0.00 | 26 | 1011.7 |
| 20260508234344 | 73 | 66 | 6.0 | 0.0 | 0.00 | 0.00 | 0.00 | 26 | 1011.0 |
| 20260508233327 | 73 | 35 | 10.0 | 0.0 | 0.00 | 0.00 | 0.00 | 27 | 1011.7 |
| 20260508232329 | 74 | 23 | 9.0 | 0.0 | 0.00 | 0.00 | 0.00 | 26 | 1011.7 |
| 20260508231353 | 74 | 322 | 12.0 | 0.0 | 0.00 | 0.00 | 0.00 | 24 | 1011.0 |
| 20260508230336 | 74 | 284 | 11.0 | 0.0 | 0.00 | 0.00 | 0.00 | 26 | 1011.8 |
| 20260508225344 | 74 | 227 | 10.0 | 0.0 | 0.00 | 0.00 | 0.00 | 25 | 1011.2 |
| 20260508224328 | 72 | 249 | 5.0 | 0.0 | 0.00 | 0.00 | 0.00 | 27 | 1011.7 |
| 20260508223332 | 72 | 234 | 4.0 | 0.0 | 0.00 | 0.00 | 0.00 | 26 | 1011.8 |
| 20260508222337 | 72 | 259 | 5.0 | 0.0 | 0.00 | 0.00 | 0.00 | 27 | 1011.8 |
| 20260508221345 | 73 | 199 | 4.0 | 0.0 | 0.00 | 0.00 | 0.00 | 27 | 1011.8 |
| 20260508220328 | 72 | 227 | 5.0 | 0.0 | 0.00 | 0.00 | 0.00 | 26 | 1012.1 |
| 20260508215355 | 72 | 249 | 4.0 | 0.0 | 0.00 | 0.00 | 0.00 | 26 | 1011.8 |
| 20260508214339 | 73 | 271 | 7.0 | 0.0 | 0.00 | 0.00 | 0.00 | 27 | 1011.8 |
| 20260508213327 | 72 | 205 | 7.0 | 0.0 | 0.00 | 0.00 | 0.00 | 26 | 1011.9 |
| 20260508212351 | 72 | 334 | 5.0 | 0.0 | 0.00 | 0.00 | 0.00 | 27 | 1012.1 |
| 20260508211335 | 72 | 346 | 5.0 | 0.0 | 0.00 | 0.00 | 0.00 | 26 | 1012.4 |
| 20260508210339 | 72 | 5 | 8.0 | 0.0 | 0.00 | 0.00 | 0.00 | 27 | 1012.5 |
| 20260508205327 | 72 | 277 | 5.0 | 0.0 | 0.00 | 0.00 | 0.00 | 27 | 1012.4 |
| 20260508204331 | 72 | 203 | 6.0 | 0.0 | 0.00 | 0.00 | 0.00 | 26 | 1012.7 |
| 20260508203339 | 72 | 236 | 5.0 | 0.0 | 0.00 | 0.00 | 0.00 | 28 | 1012.7 |
| 20260508202402 | 71 | 309 | 5.0 | 0.0 | 0.00 | 0.00 | 0.00 | 29 | 1012.8 |
| 20260508201325 | 70 | 337 | 7.0 | 0.0 | 0.00 | 0.00 | 0.00 | 30 | 1013.3 |
| 20260508200333 | 70 | 303 | 5.0 | 0.0 | 0.00 | 0.00 | 0.00 | 30 | 1013.4 |
| 20260508195337 | 69 | 225 | 4.0 | 0.0 | 0.00 | 0.00 | 0.00 | 32 | 1013.2 |
| 20260508194340 | 69 | 342 | 5.0 | 0.0 | 0.00 | 0.00 | 0.00 | 31 | 1013.3 |
| 20260508193325 | 70 | 279 | 8.0 | 0.0 | 0.00 | 0.00 | 0.00 | 31 | 1013.9 |
| 20260508192336 | 70 | 205 | 12.0 | 0.0 | 0.00 | 0.00 | 0.00 | 31 | 1014.1 |
| 20260508191339 | 70 | 242 | 7.0 | 0.0 | 0.00 | 0.00 | 0.00 | 33 | 1013.6 |
| 20260508190342 | 68 | 21 | 6.0 | 0.0 | 0.00 | 0.00 | 0.00 | 35 | 1013.8 |
| 20260508185405 | 68 | 279 | 4.0 | 0.0 | 0.00 | 0.00 | 0.00 | 37 | 1013.8 |
| 20260508184326 | 68 | 31 | 6.0 | 0.0 | 0.00 | 0.00 | 0.00 | 36 | 1014.0 |
| 20260508183334 | 68 | 310 | 3.0 | 0.0 | 0.00 | 0.00 | 0.00 | 39 | 1014.2 |
| 20260508182338 | 67 | 273 | 5.0 | 0.0 | 0.00 | 0.00 | 0.00 | 42 | 1014.7 |
| 20260508181343 | 67 | 268 | 3.0 | 0.0 | 0.00 | 0.00 | 0.00 | 41 | 1014.8 |
| 20260508180350 | 67 | 300 | 4.0 | 0.0 | 0.00 | 0.00 | 0.00 | 40 | 1014.9 |
| 20260508175337 | 67 | 291 | 3.0 | 0.0 | 0.00 | 0.00 | 0.00 | 40 | 1015.0 |
| 20260508174340 | 66 | 283 | 3.0 | 0.0 | 0.00 | 0.00 | 0.00 | 44 | 1015.3 |
| 20260508173328 | 64 | 94 | 3.0 | 0.0 | 0.00 | 0.00 | 0.00 | 45 | 1015.7 |
| 20260508172333 | 64 | 91 | 4.0 | 0.0 | 0.00 | 0.00 | 0.00 | 46 | 1015.9 |
| 20260508171341 | 64 | 16 | 3.0 | 0.0 | 0.00 | 0.00 | 0.00 | 46 | 1015.9 |
| 20260508170345 | 63 | 115 | 3.0 | 0.0 | 0.00 | 0.00 | 0.00 | 48 | 1016.1 |
| 20260508165348 | 62 | 152 | 4.0 | 0.0 | 0.00 | 0.00 | 0.00 | 49 | 1015.8 |
| 20260508164351 | 61 | 176 | 3.0 | 0.0 | 0.00 | 0.00 | 0.00 | 52 | 1016.3 |
| 20260508163333 | 60 | 100 | 4.0 | 0.0 | 0.00 | 0.00 | 0.00 | 53 | 1016.4 |
| 20260508162342 | 60 | 126 | 3.0 | 0.0 | 0.00 | 0.00 | 0.00 | 56 | 1016.0 |
| 20260508161346 | 58 | 96 | 3.0 | 0.0 | 0.00 | 0.00 | 0.00 | 57 | 1016.0 |
| 20260508160330 | 57 | 106 | 4.0 | 0.0 | 0.00 | 0.00 | 0.00 | 59 | 1016.3 |
| 20260508155334 | 56 | 76 | 3.0 | 0.0 | 0.00 | 0.00 | 0.00 | 61 | 1016.2 |
| 20260508154358 | 55 | 92 | 4.0 | 0.0 | 0.00 | 0.00 | 0.00 | 64 | 1016.3 |
| 20260508153328 | 53 | 86 | 4.0 | 0.0 | 0.00 | 0.00 | 0.00 | 67 | 1016.7 |
| 20260508152331 | 52 | 92 | 4.0 | 0.0 | 0.00 | 0.00 | 0.00 | 69 | 1017.1 |
| 20260508151335 | 51 | 111 | 4.0 | 0.0 | 0.00 | 0.00 | 0.00 | 72 | 1017.0 |
| 20260508150339 | 50 | 105 | 4.0 | 0.0 | 0.00 | 0.00 | 0.00 | 74 | 1015.4 |
| 20260508145326 | 49 | 107 | 5.0 | 0.0 | 0.00 | 0.00 | 0.00 | 76 | 1017.1 |
| 20260508144330 | 48 | 82 | 6.0 | 0.0 | 0.00 | 0.00 | 0.00 | 78 | 1016.6 |
| 20260508143335 | 47 | 90 | 6.0 | 0.0 | 0.00 | 0.00 | 0.00 | 80 | 1016.7 |
| 20260508142322 | 46 | 107 | 7.0 | 0.0 | 0.00 | 0.00 | 0.00 | 82 | 1017.1 |
| 20260508141332 | 45 | 85 | 5.0 | 0.0 | 0.00 | 0.00 | 0.00 | 83 | 1017.1 |
| 20260508140337 | 44 | 107 | 5.0 | 0.0 | 0.00 | 0.00 | 0.00 | 84 | 1016.7 |